OAO 2

Last updated on Thu Nov 21 2024 00:02:11 GMT+0000 (Coordinated Universal Time)

1 03597U 68110A 24325.50020019 .00000615 00000+0 17260-3 0 9993 2 03597 34.9946 31.9284 0005590 351.0451 9.0139 14.46857771950406
UTC large
Height (km)
Speed (km/s)
/
Latitude / Longitude
Inclination (degrees)
Orbital Period (minutes)
Azimuth
Elevation
Range (km)
Doppler Factor

Next 0 passes for location: London (51.5072 / 0.1276)

Sorry there are no passes over London.